Observations
| Time | Sensor | AQI | SAQ | Temp °C | Hum % | Pres Pa | CO μg/m³ | H₂S μg/m³ | NO μg/m³ | NO₂ μg/m³ | O₃ μg/m³ | SO₂ μg/m³ | CO₂e PPM | VOC PPM | PM1 μg/m³ | PM2.5 μg/m³ | PM4 μg/m³ | PM10 μg/m³ | TPS µm |
|---|---|---|---|---|---|---|---|---|---|---|---|---|---|---|---|---|---|---|---|
| Tuesday 11 August 2026 | |||||||||||||||||||
| 21:50 | Trim Market St | 3 | 23.7 | 46 | 63,215 | 0 | 4.43 | 1.24 | 28.09 | 53.51 | 0 | 3.56 | 6.77 | 8.29 | |||||
| 21:49 | Trim Patrick St | 3 | 23 | 49 | 69,059 | 0 | 19.54 | 1.29 | 36.71 | 43.93 | 9.16 | 4.57 | 10.33 | 11.36 | |||||
| 21:48 | Trim Patrick St | 3 | 23.1 | 50 | 69,076 | 0 | 21.28 | 1.25 | 41.09 | 45.05 | 9.95 | 7.14 | 11.79 | 12.97 | |||||
| 21:47 | Trim Patrick St | 3 | 23.1 | 49 | 69,074 | 0 | 19.69 | 1.22 | 34.55 | 46.69 | 9.68 | 5.43 | 11.04 | 12.14 | |||||
| 21:47 | Trim Market St | 3 | 23.9 | 46 | 63,268 | 0 | 6.15 | 1.21 | 28.71 | 54.88 | 0 | 2.85 | 4.7 | 6.76 | |||||
| 21:46 | Trim Patrick St | 3 | 23.1 | 49 | 69,104 | 0 | 21.02 | 1.24 | 32.5 | 46.97 | 9.74 | 3.71 | 9.53 | 10.48 | |||||
| 21:45 | Trim Patrick St | 3 | 23.2 | 49 | 69,082 | 0 | 22.08 | 1.22 | 36.84 | 44.77 | 9.9 | 8 | 14.1 | 15.51 | |||||
| 21:44 | Trim Patrick St | 3 | 23.2 | 49 | 69,084 | 0 | 22.82 | 1.26 | 46.86 | 48.84 | 10.24 | 5.43 | 11.87 | 13.05 | |||||
| 21:43 | Trim Patrick St | 3 | 23.2 | 47 | 69,086 | 0 | 21.7 | 1.31 | 43.23 | 42.05 | 9.77 | 7.14 | 11.97 | 13.16 | |||||
| 21:40 | Trim Patrick St | 3 | 23.3 | 49 | 69,096 | 0 | 22.79 | 1.25 | 42.09 | 41.26 | 10.14 | 7.14 | 12.58 | 13.84 | |||||
| 21:40 | Trim Market St | 3 | 24.1 | 46 | 63,829 | 0 | 7.39 | 1.19 | 40.98 | 49.05 | 0 | 2.85 | 5.77 | 7.53 | |||||
| 21:39 | Trim Patrick St | 3 | 23.4 | 49 | 69,102 | 0 | 23.64 | 1.22 | 44.01 | 46 | 10.81 | 7.14 | 12.58 | 13.84 | |||||
| 21:38 | Trim Patrick St | 3 | 23.4 | 49 | 69,082 | 0 | 23.11 | 1.22 | 48.93 | 43.57 | 10.55 | 5.43 | 11.09 | 12.2 | |||||
| 21:37 | Trim Patrick St | 3 | 23.5 | 49 | 69,057 | 0 | 23.48 | 1.18 | 39.34 | 44.65 | 10.64 | 5.43 | 10.31 | 11.34 | |||||
| 21:36 | Trim Market St | 3 | 24.2 | 45 | 63,964 | 0 | 6.14 | 1.19 | 25.92 | 56.79 | 0 | 3.56 | 6.3 | 8.3 | |||||
| 21:36 | Trim Patrick St | 3 | 23.5 | 48 | 69,047 | 0 | 24.08 | 1.22 | 54.83 | 37.96 | 10.66 | 5.43 | 11.92 | 13.11 | |||||
| 21:35 | Trim Market St | 3 | 24.3 | 45 | 63,966 | 0 | 7.83 | 1.17 | 34.84 | 50.71 | 0 | 2.85 | 5.26 | 7.53 | |||||
| 21:34 | Trim Market St | 3 | 24.3 | 45 | 64,046 | 0 | 6.77 | 1.18 | 31.16 | 52.85 | 0 | 3.56 | 5.79 | 7.53 | |||||
| 21:33 | Trim Market St | 3 | 24.3 | 45 | 64,084 | 0 | 9.82 | 1.18 | 31.57 | 53.05 | 0 | 2.85 | 5.27 | 5.98 | |||||
| 21:32 | Trim Market St | 3 | 24.3 | 45 | 64,131 | 0 | 11.1 | 1.19 | 46.78 | 50.22 | 0 | 3.56 | 6.31 | 7.53 | |||||